Disclaimer

Please do not use the information listed here in-flight or in-navigation, as they are not provided to us by the airports but are provided by volunteers, so they might be outdated.

Search


Regions


Airport information page

Radio informations:
LUXEUIL TWR - 122.1 MHz
LUXEUIL ARR - 397.025 MHz
LUXEUIL APP - 129.925 MHz

Airport informations:
Latitude: 47° 46' 59.27" N
Longitude: 006° 21' 50.60" E
Elevation: 913 feet - 278 meters
Operating hours: Remarks
Operating agency: Military
Timezone: UTC+1(+2DT) - Last Sunday in March to last Sunday in October
Fuel: Jet A1+, Jet A1 with icing inhibitor.

100/130 MIL Spec, low lead, aviation gasoline (BLUE)

Runway information:
04/22 - 7596 x 118 feet< - >2315 x 36 meters
11/29 - 7982 x 148 feet< - >2433 x 45 meters

Recent METARs:
LFSX 212100Z AUTO 30003KT 4900 BR OVC011 M01/M02 Q1019
LFSX 212130Z AUTO VRB02KT 4900 BR FEW009 OVC015 M01/M02 Q1019
LFSX 212200Z AUTO 00000KT 4900 BR FEW009 OVC014 M01/M02 Q1019

Airport on the map: